Location: Blazny
(46.0612°N, 84.4033°W)
Time: 21:05:00
(UTC-04:00)

Envisat - Pass Details

Date: 22 September 2024
Orbit: 762 x 764 km, 98.3° (Epoch: 11 October)

Event Time Altitude Azimuth Distance (km) Brightness Sun altitude
Rises 05:42:01 0° 6° (N) 3,237 6.6 -18.4°
Reaches altitude 10° 05:44:29 10° 358° (N) 2,307 5.7 -18.0°
Maximum altitude 05:49:04 36° 293° (WNW) 1,204 3.6 -17.2°
Enters shadow 05:50:38 29° 258° (WSW) 1,375 3.7 -17.0°
